Starlink 32821

operational
NORAD ID: 63078 Int'l Des: 2025-037 Owner: SPXS Country: US Constellation: starlink
LEOCIRCULAR

关于 Starlink 32821

正在加载描述...

实时位置

正在加载3D地球...

即将过境

高度历史

Altitude vs Time

uPlot chart will show altitude changes over time

两行轨道根数

1 63078U 25037B 25259.20409675 .00002260 00000-0 19712-3 0 9990
2 63078 70.0018 74.4814 0002449 269.1694 90.9185 14.98336344 32457
Epoch: Sep 16, 2025 • Age: 10 hours

当前状态

高度 574.3 km
速度 7.58 km/s
星下点 16.39°N, 22.94°E
发射日期 Feb 23, 2025
运行时间 0.5 years
类型 internet

技术详情

分类 Payload
质量 730.00 kg
干质量 700.00 kg
总质量 730.00 kg
长度 0.30 m
直径 4.10 m
跨度 29.00 m
形状 Box + pan
制造商 SPXS
平台类型 Starlink V2M
阶段状态 In Orbit
所有者/国家 SPXS/US

大型星座

Loading constellations...